Weather History for KASH - July, 2014

Change the Weather History Date:

Friday, July 4, 2014

  Actual Average Record
Temperature  
Mean Temperature 68 °F -  
Max Temperature 72 °F 80 °F 96 °F (1949)
Min Temperature 62 °F 56 °F 42 °F (1971)
Cooling Degree Days 3    
Growing Degree Days 18 (Base 50)    
Moisture  
Dew Point 67 °F    
Average Humidity 94    
Maximum Humidity 100    
Minimum Humidity 73    
Precipitation  
Precipitation 0.47 in - - ()
Sea Level Pressure  
Sea Level Pressure 30.41 in    
Wind  
Wind Speed 1 mph (NNW)    
Max Wind Speed 12 mph    
Max Gust Speed -    
Visibility 7 miles    
Events Rain    
Averages and records for this station are not official NWS values.
T = Trace of Precipitation, MM = Missing Value Source: NWS Daily Summary

Daily Weather History Graph

Daily Weather History Graph

Search for Another Location

Airport or City:

Trip Planner

Search our weather history database for the weather conditions in past years. The results will help you decide how hot, cold, wet, or windy it might be!

Date:

Astronomy

Jul. 04, 2014 Rise Set
Actual Time 5:13 AM EDT 8:27 PM EDT
Civil Twilight 4:38 AM EDT 9:02 PM EDT
Nautical Twilight 3:53 AM EDT 9:47 PM EDT
Astronomical Twilight 2:58 AM EDT 10:41 PM EDT
Moon 12:16 PM EDT (7/4) No Moon Set
Length of Visible Light 16h 23m
Length of Day
15h 14m
Waxing Crescent, 42% of the Moon is Illuminated
Jul 4
Waxing Crescent
Jul 5
First Quarter
Jul 12
Full
Jul 18
Last Quarter
Jul 26
New

Hourly Weather History & Observations

Time (EDT) Temp. Dew Point Humidity Pressure Visibility Wind Dir Wind Speed Gust Speed Precip Events Conditions
12:51 AM 70.0 °F 68.9 °F 96% 30.64 in 10.0 mi Calm Calm - 0.01 in   Clear
1:51 AM 68.9 °F 68.9 °F 100% 30.66 in 10.0 mi Calm Calm - 0.00 in   Clear
2:01 AM 69.8 °F 69.8 °F 100% 29.95 in 10.0 mi Calm Calm - N/A   Partly Cloudy
2:51 AM 68.9 °F 68.9 °F 100% 30.67 in 10.0 mi Calm Calm - N/A   Clear
3:51 AM 68.0 °F 68.0 °F 100% 30.69 in 10.0 mi Calm Calm - 0.01 in   Clear
4:12 AM 68.0 °F 68.0 °F 100% 29.97 in 10.0 mi Calm Calm - N/A   Partly Cloudy
4:51 AM 68.0 °F 66.9 °F 96% 30.70 in 10.0 mi Calm Calm - N/A   Clear
5:39 AM 68.0 °F 66.2 °F 94% 29.99 in 10.0 mi Calm Calm - N/A   Mostly Cloudy
5:51 AM 68.0 °F 66.9 °F 96% 30.71 in 10.0 mi Calm Calm - N/A   Overcast
6:35 AM 69.8 °F 68.0 °F 94% 30.00 in 10.0 mi Calm Calm - N/A   Scattered Clouds
6:51 AM 70.0 °F 68.9 °F 96% 30.71 in 10.0 mi Calm Calm - N/A   Partly Cloudy
7:51 AM 70.0 °F 68.9 °F 96% 30.71 in 10.0 mi Calm Calm - N/A   Clear
8:51 AM 72.0 °F 68.9 °F 90% 30.72 in 10.0 mi Calm Calm - 0.00 in   Mostly Cloudy
9:51 AM 72.9 °F 68.0 °F 85% 30.72 in 10.0 mi Calm Calm - N/A   Mostly Cloudy
10:51 AM 72.9 °F 66.9 °F 82% 30.72 in 10.0 mi Calm Calm - N/A   Mostly Cloudy
11:51 AM 72.9 °F 63.9 °F 73% 30.71 in 10.0 mi NW 6.9 mph - N/A   Mostly Cloudy
12:29 PM 71.6 °F 68.0 °F 88% 29.99 in 5.0 mi Calm Calm - 0.00 in Rain Light Rain
12:51 PM 70.9 °F 68.0 °F 91% 30.69 in 4.0 mi NNW 10.4 mph - 0.02 in Rain Light Rain
1:51 PM 70.0 °F 68.0 °F 93% 30.70 in 6.0 mi NNW 6.9 mph - 0.02 in Rain Light Rain
2:51 PM 68.9 °F 66.9 °F 93% 30.68 in 4.0 mi Calm Calm - 0.02 in Rain Rain
3:51 PM 68.0 °F 64.9 °F 90% 30.67 in 5.0 mi Calm Calm - 0.08 in Rain Rain
4:51 PM 65.8 °F 63.9 °F 93% 30.65 in 5.0 mi Calm Calm - 0.07 in Rain Light Rain
6:51 PM 65.8 °F 64.9 °F 97% 30.62 in 5.0 mi Calm Calm - 0.07 in Rain Rain
7:51 PM 65.8 °F 64.9 °F 97% 30.59 in 3.0 mi Calm Calm - 0.07 in Rain Light Rain
8:30 PM 66.2 °F 66.2 °F 100% 29.87 in 2.5 mi North 5.8 mph - 0.06 in Rain Rain
8:37 PM 66.2 °F 66.2 °F 100% 29.87 in 3.0 mi Calm Calm - 0.09 in Rain Rain
8:51 PM 66.9 °F 65.8 °F 96% 30.60 in 3.0 mi NNW 6.9 mph - 0.10 in Rain Rain
8:58 PM 66.2 °F 66.2 °F 100% 29.87 in 4.0 mi NNW 8.1 mph - 0.00 in Rain Rain
9:23 PM 66.2 °F 64.4 °F 94% 29.87 in 7.0 mi NNW 11.5 mph - 0.02 in Rain Light Rain
10:44 PM 64.4 °F 62.6 °F 94% 29.86 in 8.0 mi NNW 11.5 mph - 0.00 in Rain Light Rain
11:20 PM 62.6 °F 62.6 °F 100% 29.84 in 6.0 mi North 8.1 mph - 0.02 in Rain Light Rain